COSMOS 1261 DEB, 12893

Orbit data source: Space-Track

COSMOS 1261 DEB, 12893 is space debris originally from a launch on Tue, 31 Mar 1981 UTC launched from the Plesetsk Missile And Space Complex (PKMTR). Debris objects in space refer to the collection of defunct objects orbiting the Earth. Examples of debris include non-operational satellites, rocket bodies, and fragments generated from explosions, collisions, or faulty payload assembly.

Loading next visibility...
COSMOS 1261 DEB details
Identifier
12893, 1981-031F
Orbit
Molniya
Last TLE update3 days ago
Origin
Flag of CISPVO (CIS)
ManufacturerUnknown
MissionSpacecraft
Bus & MotorUnknown
MassUnknown
Launch date (UTC)
1981-03-31 (44 years ago)
Launch vehicleUnknown
Launch site
Plesetsk Missile And Space Complex (PKMTR)
Object type
Payload
Rocket body
Debris
Shape & HBRUnknown
Radar Cross SectionMedium (>0.1 m² and <1 m²)

Expand to show TLE details & history

TLE from 3 days ago
0 COSMOS 1261 DEB
1 12893U 81031F   25033.73993124  .00000573  00000-0  00000-0 0  9992
2 12893  64.8328  45.8421 7073067  29.9340 356.3227  2.01084745302067
Epoch: 2025-02-02T17:45Z
Definitive object data (Epoch: 2025-02-02T17:45:30.059Z)
Latitude-0.00037°
Longitude6.25809°
Altitude1,849.625 km
Speed9.048 km/s
True Right ascension03h 03m 12s
True Declination0° 00' 01"
Sunlit
Object was in daylight at TLE epoch
Visualization TLE readout
Latitude25.44308°
Longitude173.03754°
Altitude14,720.033 km
Speed4.771 km/s
Apparent Right ascension15h 09m 32s
Apparent Declination14° 42' 21"
Sunlit
Object is in daylight
Visualization observer readout
Local Sidereal Time08:44:17
Azimuth74.701° E
Elevation4.662°
Doppler factor1
Orbital elements
Apogee altitude38,888.332 km
Perigee altitude1,382.151 km
Semi-major axis26,513.379 km
Eccentricity0.7073067
Inclination64.8328°
RAAN45.8421°
Arg. of periapsis29.934°
True anomaly330.74802°
Mean anomaly356.3227°
Eccentric anomaly347.66601°
Mean motion0.50274 °/min
BSTARUnknown
Orbital period716.07 mins
Loading maneuver chart data...
Loading historical data...
Loading historical data...
Loading historical data...
Loading historical data...
Loading historical data...
Loading historical data...
Loading historical data...

COSMOS 1261 DEB Visibility forecast

Observer location: undefined°, undefined

Span
Click to sort rows by Start time (UTC) header in descending order
Start Az.
Max El. time (UTC)
Max El. Az.
Max El.
End time (UTC)
End Az.
37 mins2025-02-06 05:32:03.988Z299.213° NW2025-02-06 05:40:03.988Z1.107° NNE26.029°2025-02-06 06:09:03.988Z61.174° ENE
|